Regional Weather Roundup
Issued by NWS Grand Forks, ND

Home | Current Version | Previous Version | Graphics & Text | Print | Product List | Glossary On
Versions: 1 2 3 4 5 6 7 8 9 10 11 12 13 14 15 16 17 18 19 20 21 22 23 24 25 26 27 28 29 30 31 32 33 34 35 36 37 38 39 40 41 42 43 44 45 46 47 48 49 50
000
ASUS43 KFGF 271731
RWRFGF
PRAIRIE TO PINES  WEATHER ROUNDUP
NATIONAL WEATHER SERVICE EASTERN NORTH DAKOTA/GRAND FORKS ND
1200 PM CDT FRI MAR 27 2015

 **SATELLITE DATA USED TO AUGMENT SKY COVER AT AUTOMATED STATIONS**
 *****  WEATHER ACROSS EASTERN NORTH DAKOTA  *****

CITY           SKY/WX    TMP DP  RH WIND       PRES   REMARKS
GRAND FORKS    CLOUDY    29  13  51 S13       30.16F WCI  19
GRAND FRKS AFB CLOUDY    29  15  55 S10       30.15F WCI  19
GRAND FRKS NWS   N/A     30 N/A N/A S9          N/A  WCI  22
DEVILS LAKE    CLOUDY    27  21  80 S16       30.05F VSB 1   WCI  14
FARGO          CLOUDY    31  10  41 S14       30.18F WCI  21
WAHPETON ARPT  PTSUNNY   32   9  37 S10       30.19F WCI  24
$$

 ***** WEATHER ACROSS CENTRAL AND WESTERN NORTH DAKOTA  *****

CITY           SKY/WX    TMP DP  RH WIND       PRES   REMARKS
BISMARCK       CLOUDY    30  24  78 S14       30.02F WCI  19
MINOT          CLOUDY    33  27  78 S17       29.92F WCI  22
JAMESTOWN      LGT SNOW  26  23  88 S18       30.07F VSB 3/4 WCI  13
MINOT AFB      CLOUDY    34  34 100 S13       29.90F WCI  25
GARRISON         N/A     33  28  81 S15       29.94F WCI  23
WILLISTON      CLOUDY    47  35  63 W8        29.92S
DICKINSON      MOSUNNY   55  37  50 NW15      29.90F
HETTINGER      PTSUNNY   49  36  61 W10       29.95F
$$

 *****  OTHER AIRPORT OBSERVATIONS IN OUR AREA  *****

CITY           SKY/WX    TMP DP  RH WIND       PRES   REMARKS
WALHALLA         N/A     28  25  86 S12       30.10F WCI  18
GRAFTON AIRPOR NOT AVBL
VALLEY CITY AR MIX PCPN  30  18  59 SW16      30.12F WCI  19
CANDO          SNOW      27  25  93 S15       30.04F VSB 1/2 WCI  15
CAVALIER APRT  PTSUNNY   28  19  69 S14       30.12F WCI  17
GWINNER        PTSUNNY   32  18  55 S12         N/A  WCI  23
SHEYENNE NWR     N/A     30  13  49 S10       29.95S WCI  21
ROLLA          LGT SNOW  27  27 100 S18G24    29.98F WCI  13
 ***** THE ABOVE OBSERVATIONS ARE NON NWS ARE NOT QUALITY
       CONTROLLED AND MAY MIS-REPORT RAIN FOR SNOW...
$$

  *****  WEATHER ACROSS NORTHERN MINNESOTA  *****

CITY           SKY/WX    TMP DP  RH WIND       PRES   REMARKS
FLAG ISLAND    MOSUNNY   21  10  63 SE12      30.17F WCI   9
WARROAD        PTSUNNY   28   9  43 SW6       30.17F WCI  22
ROSEAU         PTSUNNY   28  12  50 S7        30.17F WCI  21
HALLOCK        CLOUDY    28  14  54 S14       30.15F WCI  17
THF RVR FALLS  PTSUNNY   27  12  54 S14       30.17F WCI  15
BAUDETTE       SUNNY     27   7  42 VRB6      30.17F WCI  20
WASKISH        SUNNY     27  10  50 W7        30.18F WCI  19
CROOKSTON      PTSUNNY   30  10  43 S13G18    30.18F WCI  20
STEPHEN NDAWN    N/A     28   9  43 S12         N/A  WCI  18
GREENBUSH NDAW   N/A     27  16  63 S12         N/A  WCI  16
$$
  *****  WEATHER ACROSS CENTRAL AND WEST MINNESOTA  *****

CITY           SKY/WX    TMP DP  RH WIND       PRES   REMARKS
FOSSTON        PTSUNNY   28   7  40 S10G16    30.17F WCI  19
BEMIDJI        SUNNY     28   2  33 S5        30.17F WCI  22
PARK RAPIDS    SUNNY     29   3  33 CALM      30.17F
ELBOW LAKE     FAIR      29   7  39 S8G16     30.19F WCI  21
WADENA         MOSUNNY   28   7  40 SW5       30.18F WCI  23
DETROIT LAKES  MOSUNNY   30   7  37 S9        30.18F WCI  22
MOORHEAD       PTSUNNY   30   7  37 S13       30.19F WCI  20
FERGUS FALLS   PTSUNNY   30   1  29 S9        30.22F WCI  22
MORRIS MN      MOSUNNY   30  10  43 S6        30.20F WCI  24
STAPLES        SUNNY     27   1  33 CALM      30.20F
$$
  *****  WEATHER ELSEWHERE ACROSS MINNESOTA  *****

CITY           SKY/WX    TMP DP  RH WIND       PRES   REMARKS
DULUTH         MOSUNNY   24   4  42 CALM      30.20F
INTRNTL FALLS  SUNNY     25   6  44 SE6       30.20F WCI  18
ELY            SUNNY     25   0  33 CALM      30.19F
CLOQUET        SUNNY     27  -2  28 E3        30.20F
WHEATON        MOSUNNY   28  12  50 S12       30.21F WCI  18
BRAINERD       SUNNY     27   0  31 VRB5      30.23F WCI  22
HIBBING        SUNNY     25   1  35 CALM      30.20F
ALEXANDRIA     SUNNY     27   5  39 VRB5      30.21F WCI  22
SAINT CLOUD    SUNNY     29   3  33 W5        30.25F WCI  24
MINNEAPOLIS    MOSUNNY   29   1  30 CALM      30.26F
$$

  *****  WEATHER ACROSS SOUTH DAKOTA  *****

CITY           SKY/WX    TMP DP  RH WIND       PRES   REMARKS
SIOUX FALLS    CLOUDY    30   9  41 S8        30.21F WCI  22
BROOKINGS      NOT AVBL
WATERTOWN      CLOUDY    28  10  46 SW10      30.16F WCI  19
HURON          CLOUDY    32  13  45 S12       30.18F WCI  23
SISSETON         N/A     30  10  43 SW10      30.18F WCI  21
ABERDEEN       CLOUDY    32  14  47 S13       30.16F WCI  22
MITCHELL       CLOUDY    32  15  49 MISG      30.21F
PIERRE         CLOUDY    30  28  92 SE14      30.07F WCI  19
MOBRIDGE       CLOUDY    31  26  82 S16       30.01F WCI  20
RAPID CITY     SUNNY     59  38  45 NW10      29.98F
$$

  *****  SOME WEATHER IN NEARBY STATES *****

CITY           SKY/WX    TMP DP  RH WIND       PRES   REMARKS
GLASGOW MT     MOSUNNY   52  37  56 W8        29.97S
GREAT FALLS MT MOSUNNY   65  28  24 SW21      30.04F
CHEYENNE WY    SUNNY     56  28  34 NW20G29   30.18F
SCOTTSBLUFF NE CLOUDY    53  39  59 NW13      30.11F
OMAHA NE       CLOUDY    35  16  45 CALM      30.29F
DES MOINES IA  MOSUNNY   36   8  31 VRB7      30.27S
DAVENPORT IA   SUNNY     31   8  38 NE13      30.23F WCI  21
CHICAGO IL     MOSUNNY   27   9  46 N15       30.16F WCI  15
EAU CLAIRE WI  SUNNY     29   7  39 NW7       30.24F WCI  22
LA CROSSE WI   SUNNY     30  10  43 W3        30.26F
$$

  *****  SOME NATIONAL WEATHER *****

CITY           SKY/WX    TMP DP  RH WIND       PRES   REMARKS
LA GUARDIA NY  CLOUDY    44  34  67 NW7       29.73F
RALEIGH NC     CLOUDY    46  43  89 NE8       29.77F
ATLANTA GA     MOSUNNY   52  37  56 NW17G29   29.84F
NEW ORLEANS LA MOSUNNY   60  35  39 N14       30.08F
OKLAHOMA CITY  CLOUDY    47  37  68 N13       30.25R
ALBUQUERQUE NM SUNNY     58  18  21 CALM      30.33S
SALT LAKE CITY SUNNY     56  31  38 E3        30.33F
LOS ANGELES CA MOSUNNY   75  50  41 CALM      30.09R
BOISE ID       SUNNY     58  43  57 S9        30.22S
SEATTLE WA     PTSUNNY   54  50  86 S3        30.04S
$$

*** WEATHER ACROSS MANITOBA...SASKATCHEWAN AND ONTARIO ***
                ***ONTARIO***

CITY           SKY/WX    TMP DP  RH WIND       PRES   REMARKS
GERALDTON      SUNNY     16  -6  38 NW8       30.20F WCI   5
THUNDER BAY    SUNNY     19  -4  35 SE6       30.28F WCI  11
SIOUX LOOKOUT  SUNNY     21   0  39 S5        30.18F WCI  15
TORONTO        CLOUDY    27  14  59 N15G24    29.91R WCI  15
BIG TROUT LK   SUNNY     19  -2  38 W13       30.11F WCI   7
PICKLE LAKE    SUNNY     21  -2  35 W10       30.15F WCI  10
DRYDEN         SUNNY     21   5  49 S7        30.17F WCI  13
KENORA         MOSUNNY   23   5  46 SW10      30.16F WCI  12
$$
                *** MANITOBA***

CITY           SKY/WX    TMP DP  RH WIND       PRES   REMARKS
BRANDON        LGT SNOW  28  25  86 S14       29.98F VSB 1   WCI  17
DAUPHIN        LGT SNOW  28  27  93 E7        29.97F WCI  21
ISLAND LAKE    MOSUNNY   21   3  45 VRB2      30.12F
PILOT MOUND      N/A     27  23  86 S20         N/A  WCI  13
THE PAS        MOSUNNY   34  25  69 SE13      30.01F WCI  25
THOMPSON       SUNNY     30  14  51 S5        30.04F
WINNIPEG       CLOUDY    28  16  59 S16       30.14F WCI  17
LYNN LAKE      SUNNY     34  19  55 S6        29.97F
CHURCHILL      MOSUNNY   19   7  58 W8        29.93F WCI   9
GILLAM         SUNNY     19  10  68 NW6       30.04F WCI  11
$$
                ***SASKATCHEWAN***

CITY           SKY/WX    TMP DP  RH WIND       PRES   REMARKS
ESTEVAN        PTSUNNY   43  36  75 W14       29.88
KINDERSLEY     MOSUNNY   46  37  71 W3        29.91F
LLOYDMINSTER   MOSUNNY   46  36  66 CALM      29.89S
PRINCE ALBERT  CLOUDY    34  32  93 E5        29.91S FOG
REGINA         PTSUNNY   41  36  81 W9        29.90R
YORKTON        CLOUDY    32  28  86 S9        29.88S WCI  24
N. BATTLEFORD  SUNNY     41  34  75 CALM      29.92S
LA RONGE       FLURRIES  30  28  93 E7        29.95S WCI  23
SASKATOON      PTSUNNY   45  37  76 NE10      29.91S
SWIFT CURRENT  SUNNY     55  39  54 W14       29.91S
$$
NOTE: THESE ARE AUTOMATED STATIONS WITH LIMITED QUALITY CONTROL
      "FAIR" INDICATES FEW OR NO CLOUDS BELOW 12,000 FEET WITH NO
      SIGNIFICANT WEATHER AND/OR OBSTRUCTIONS TO VISIBILITY.
      SKY/WX - SKY CONDITION AND SIGNIFICANT WEATHER.
      TMP - AIR TEMPERATURE.    DP   - DEWPOINT TEMPERATURE.
      RH  - RELATIVE HUMIDITY.  PRES - PRESSURE.
      HX  - HEAT INDEX.         WCI  - WIND CHILL INDEX.
$


USA.gov is the U.S. government's official web portal to all federal, state and local government web resources and services.